Cut Bank, MT

4:13 AM MDT on October 15, 2019 (GMT -0600)
Cut Bank Municipal

Weather History for KCTB - August, 2019

Change the Weather History Date:

Monday, August 26, 2019

  Actual Average Record
Temperature  
Mean Temperature 54 °F 61 °F  
Max Temperature 64 °F 76 °F 95 °F (2010)
Min Temperature 44 °F 46 °F 31 °F (1910)
Degree Days  
Heating Degree Days 10 5  
Month to date heating degree days 63 79  
Since 1 June heating degree days 378 398  
Since 1 July heating degree days 156 165  
Cooling Degree Days 0 1  
Month to date cooling degree days 51 60  
Year to date cooling degree days 104 149  
Since 1 June cooling degree days 104 147  
Growing Degree Days 4 (Base 50)    
Moisture  
Dew Point 42 °F    
Average Humidity 68    
Maximum Humidity 93    
Minimum Humidity 41    
Precipitation  
Precipitation 0.00 in 0.04 in 0.68 in (1954)
Month to date precipitation 1.38 0.99  
Year to date precipitation 8.79 8.46  
Snow  
Snow - - - ()
Snow Depth 0.00 in    
Sea Level Pressure  
Sea Level Pressure 30.14 in    
Wind  
Wind Speed 7 mph ()    
Max Wind Speed 20 mph    
Max Gust Speed 24 mph    
Visibility 10.0 miles    
Events      
T = Trace of Precipitation, MM = Missing Value Source: Averaged Metar Reports

Daily Weather History Graph

Daily Weather History Graph

Search for Another Location

Airport or City:

Astronomy

Aug. 26, 2019 Rise Set
Actual Time 6:38 AM MDT 8:23 PM MDT
Civil Twilight 6:04 AM MDT 8:56 PM MDT
Nautical Twilight 5:23 AM MDT 9:37 PM MDT
Astronomical Twilight 4:38 AM MDT 10:22 PM MDT
Moon 1:48 AM MDT (8/26) 6:09 PM MDT (8/26)
Length of Visible Light 14h 52m
Length of Day
13h 45m
Waning Crescent, 19% of the Moon is Illuminated
Aug 26
Waning Crescent
Aug 30
New
Sep 5
First Quarter
Sep 13
Full
Sep 21
Last Quarter

Hourly Weather History & Observations

Time (MDT) Temp. Windchill Dew Point Humidity Pressure Visibility Wind Dir Wind Speed Gust Speed Precip Events Conditions
12:56 AM 50.0 °F - 45.0 °F 83% 30.09 in 10.0 mi NNW 13.8 mph - N/A   Mostly Cloudy
1:56 AM 45.0 °F - 43.0 °F 93% 30.10 in 10.0 mi Calm Calm - N/A   Clear
2:56 AM 46.9 °F - 44.1 °F 90% 30.09 in 10.0 mi West 6.9 mph - N/A   Overcast
3:56 AM 46.9 °F - 44.1 °F 90% 30.08 in 10.0 mi West 6.9 mph - N/A   Overcast
4:56 AM 46.0 °F 42.5 °F 42.1 °F 86% 30.08 in 10.0 mi West 6.9 mph - N/A   Overcast
5:56 AM 45.0 °F 41.2 °F 42.1 °F 90% 30.11 in 10.0 mi WNW 6.9 mph - N/A   Overcast
6:56 AM 46.9 °F - 43.0 °F 86% 30.13 in 10.0 mi NW 8.1 mph - N/A   Overcast
7:56 AM 50.0 °F - 45.0 °F 83% 30.14 in 10.0 mi NW 10.4 mph - N/A   Overcast
8:56 AM 50.0 °F - 44.1 °F 80% 30.17 in 10.0 mi NW 11.5 mph - N/A   Overcast
9:56 AM 54.0 °F - 43.0 °F 66% 30.17 in 10.0 mi NNW 6.9 mph - N/A   Overcast
10:56 AM 55.9 °F - 43.0 °F 62% 30.17 in 10.0 mi Variable 6.9 mph - N/A   Overcast
11:56 AM 57.9 °F - 42.1 °F 56% 30.15 in 10.0 mi North 6.9 mph - N/A   Scattered Clouds
12:56 PM 63.0 °F - 41.0 °F 45% 30.13 in 10.0 mi Variable 4.6 mph - N/A   Mostly Cloudy
1:56 PM 62.1 °F - 39.9 °F 44% 30.12 in 10.0 mi Variable 5.8 mph - N/A   Mostly Cloudy
2:56 PM 63.0 °F - 43.0 °F 48% 30.12 in 10.0 mi NNE 15.0 mph - N/A   Overcast
3:56 PM 63.0 °F - 44.1 °F 50% 30.12 in 10.0 mi NNE 11.5 mph - N/A   Scattered Clouds
4:56 PM 63.0 °F - 43.0 °F 48% 30.12 in 10.0 mi NE 12.7 mph - N/A   Mostly Cloudy
6:56 PM 62.1 °F - 37.9 °F 41% 30.13 in 10.0 mi NNE 15.0 mph - N/A   Scattered Clouds
7:56 PM 57.0 °F - 37.0 °F 47% 30.16 in 10.0 mi NNE 16.1 mph - N/A   Clear
8:56 PM 50.0 °F - 37.0 °F 61% 30.20 in 10.0 mi East 4.6 mph - N/A   Partly Cloudy
9:56 PM 48.9 °F - 37.9 °F 66% 30.22 in 10.0 mi WSW 4.6 mph - N/A   Mostly Cloudy
10:56 PM 48.0 °F - 39.0 °F 71% 30.23 in 10.0 mi West 4.6 mph - N/A   Mostly Cloudy
11:56 PM 50.0 °F - 39.9 °F 68% 30.23 in 10.0 mi WNW 6.9 mph - N/A   Overcast